• In Austria
  • List of Countries
  • For 7 days
  • Water Temperature
  • Satellite Maps
  • Weather Map
  • News
  • Weather Widgets
  • user-avatar
    Login

    Hourly Weather Tirana

    Today, 19 July, Thursday

    Time Temperature Precipitation Wind Pressure Humidity
    00:00 +21°C° 0.1 mm 3 mps 751 mmHg 76%
    01:00 +21°C° 0.1 mm 3 mps 751 mmHg 75%
    02:00 +20°C° 0 mm 2 mps 751 mmHg 75%
    03:00 +20°C° 0 mm 2 mps 751 mmHg 74%
    04:00 +20°C° 0 mm 2 mps 751 mmHg 73%
    05:00 +23°C° 0 mm 2 mps 751 mmHg 67%
    06:00 +25°C° 0 mm 1 mps 751 mmHg 62%
    07:00 +26°C° 0 mm 1 mps 751 mmHg 56%
    08:00 +28°C° 0 mm 2 mps 751 mmHg 52%
    09:00 +29°C° 0 mm 2 mps 751 mmHg 49%
    10:00 +30°C° 0 mm 3 mps 751 mmHg 45%
    11:00 +32°C° 0 mm 4 mps 751 mmHg 44%
    12:00 +32°C° 0 mm 4 mps 751 mmHg 43%
    13:00 +33°C° 0 mm 5 mps 751 mmHg 42%
    14:00 +33°C° 0 mm 5 mps 751 mmHg 44%
    15:00 +32°C° 0 mm 5 mps 751 mmHg 46%
    16:00 +32°C° 0 mm 5 mps 750 mmHg 48%
    17:00 +29°C° 0 mm 5 mps 750 mmHg 56%
    18:00 +27°C° 0 mm 4 mps 750 mmHg 63%
    19:00 +26°C° 0 mm 4 mps 750 mmHg 71%
    20:00 +25°C° 0 mm 3 mps 751 mmHg 72%
    21:00 +24°C° 0 mm 3 mps 751 mmHg 73%
    22:00 +22°C° 0 mm 3 mps 752 mmHg 74%
    23:00 +22°C° 0 mm 3 mps 751 mmHg 74%

    Tomorrow, 20 July, Friday

    Time Temperature Precipitation Wind Pressure Humidity
    00:00 +22°C° 0 mm 3 mps 751 mmHg 73%
    01:00 +21°C° 0 mm 2 mps 751 mmHg 72%
    02:00 +21°C° 0 mm 2 mps 751 mmHg 72%
    03:00 +21°C° 0 mm 2 mps 751 mmHg 72%
    04:00 +21°C° 0 mm 2 mps 751 mmHg 72%
    05:00 +23°C° 0 mm 2 mps 751 mmHg 68%
    06:00 +25°C° 0 mm 2 mps 751 mmHg 64%
    07:00 +27°C° 0 mm 2 mps 751 mmHg 59%
    08:00 +28°C° 0 mm 2 mps 751 mmHg 54%
    09:00 +30°C° 0 mm 2 mps 751 mmHg 49%
    10:00 +33°C° 0 mm 3 mps 752 mmHg 44%
    11:00 +33°C° 0 mm 3 mps 751 mmHg 42%
    12:00 +34°C° 0 mm 4 mps 751 mmHg 41%
    13:00 +34°C° 0 mm 5 mps 751 mmHg 40%
    14:00 +34°C° 0 mm 5 mps 751 mmHg 41%
    15:00 +34°C° 0 mm 5 mps 751 mmHg 42%
    16:00 +33°C° 0 mm 5 mps 751 mmHg 43%
    17:00 +30°C° 0 mm 5 mps 751 mmHg 50%
    18:00 +28°C° 0 mm 4 mps 751 mmHg 57%
    19:00 +26°C° 0 mm 3 mps 751 mmHg 64%
    20:00 +25°C° 0 mm 3 mps 751 mmHg 64%
    21:00 +25°C° 0 mm 2 mps 752 mmHg 64%
    22:00 +24°C° 0 mm 2 mps 752 mmHg 64%
    23:00 +24°C° 0 mm 2 mps 752 mmHg 63%

    Day after tomorrow, 21 July, Saturday

    Time Temperature Precipitation Wind Pressure Humidity
    00:00 +23°C° 0 mm 2 mps 752 mmHg 62%
    01:00 +23°C° 0 mm 2 mps 752 mmHg 61%
    02:00 +23°C° 0 mm 2 mps 752 mmHg 60%
    03:00 +23°C° 0 mm 1 mps 752 mmHg 60%
    04:00 +22°C° 0 mm 1 mps 752 mmHg 60%
    05:00 +24°C° 0 mm 1 mps 752 mmHg 56%
    06:00 +26°C° 0 mm 1 mps 752 mmHg 53%
    07:00 +28°C° 0 mm 1 mps 752 mmHg 49%
    08:00 +29°C° 0 mm 1 mps 752 mmHg 45%
    09:00 +31°C° 0 mm 1 mps 752 mmHg 41%
    10:00 +33°C° 0 mm 1 mps 752 mmHg 37%
    11:00 +34°C° 0 mm 2 mps 752 mmHg 35%
    12:00 +35°C° 0 mm 3 mps 752 mmHg 34%
    13:00 +36°C° 0 mm 3 mps 752 mmHg 33%
    14:00 +35°C° 0 mm 3 mps 751 mmHg 34%
    15:00 +35°C° 0 mm 2 mps 751 mmHg 36%
    16:00 +35°C° 0 mm 2 mps 751 mmHg 38%
    17:00 +31°C° 0 mm 2 mps 751 mmHg 44%
    18:00 +29°C° 0 mm 1 mps 751 mmHg 51%
    19:00 +27°C° 0 mm 1 mps 751 mmHg 57%
    20:00 +26°C° 0 mm 1 mps 751 mmHg 57%
    21:00 +26°C° 0 mm 1 mps 752 mmHg 58%
    22:00 +25°C° 0 mm 2 mps 752 mmHg 59%
    23:00 +25°C° 0 mm 2 mps 752 mmHg 58%

    22 July, Sunday

    Time Temperature Precipitation Wind Pressure Humidity
    00:00 +25°C° 0 mm 2 mps 751 mmHg 57%
    01:00 +24°C° 0 mm 2 mps 751 mmHg 56%
    02:00 +24°C° 0 mm 3 mps 751 mmHg 55%
    03:00 +24°C° 0 mm 3 mps 751 mmHg 54%
    04:00 +24°C° 0 mm 3 mps 751 mmHg 52%
    05:00 +26°C° 0 mm 3 mps 750 mmHg 51%
    06:00 +28°C° 0 mm 3 mps 750 mmHg 50%
    07:00 +30°C° 0 mm 3 mps 750 mmHg 49%
    08:00 +33°C° 0 mm 3 mps 750 mmHg 43%
    09:00 +35°C° 0 mm 4 mps 749 mmHg 37%
    10:00 +37°C° 0 mm 4 mps 749 mmHg 31%
    11:00 +37°C° 0 mm 5 mps 749 mmHg 30%
    12:00 +39°C° 0 mm 6 mps 748 mmHg 30%
    13:00 +39°C° 0 mm 7 mps 748 mmHg 29%
    14:00 +39°C° 0 mm 7 mps 747 mmHg 31%
    15:00 +38°C° 0 mm 7 mps 747 mmHg 32%
    16:00 +38°C° 0 mm 7 mps 747 mmHg 34%
    17:00 +34°C° 0 mm 7 mps 747 mmHg 40%
    18:00 +32°C° 0 mm 7 mps 747 mmHg 46%
    19:00 +29°C° 0 mm 7 mps 747 mmHg 52%
    20:00 +28°C° 0 mm 7 mps 746 mmHg 53%
    21:00 +28°C° 0 mm 7 mps 746 mmHg 53%
    22:00 +27°C° 0 mm 7 mps 746 mmHg 54%
    23:00 +26°C° 0.3 mm 6 mps 746 mmHg 59%

    23 July, Monday

    Time Temperature Precipitation Wind Pressure Humidity
    00:00 +25°C° 0.3 mm 5 mps 746 mmHg 65%
    01:00 +25°C° 0.3 mm 4 mps 746 mmHg 70%
    02:00 +23°C° 0.9 mm 4 mps 746 mmHg 76%
    03:00 +23°C° 0.9 mm 4 mps 746 mmHg 81%
    04:00 +22°C° 0.9 mm 4 mps 746 mmHg 86%
    05:00 +23°C° 0.5 mm 4 mps 746 mmHg 83%
    06:00 +25°C° 0.5 mm 3 mps 746 mmHg 80%
    07:00 +26°C° 0.5 mm 2 mps 746 mmHg 77%
    08:00 +26°C° 0.5 mm 3 mps 746 mmHg 72%
    09:00 +27°C° 0.5 mm 3 mps 746 mmHg 67%
    10:00 +28°C° 0.5 mm 3 mps 746 mmHg 63%
    11:00 +28°C° 0.3 mm 3 mps 746 mmHg 61%
    12:00 +29°C° 0.3 mm 3 mps 746 mmHg 59%
    13:00 +29°C° 0.3 mm 4 mps 746 mmHg 58%
    14:00 +29°C° 0.3 mm 4 mps 746 mmHg 58%
    15:00 +29°C° 0.3 mm 4 mps 746 mmHg 57%
    16:00 +29°C° 0.3 mm 4 mps 745 mmHg 57%
    17:00 +28°C° 0.1 mm 3 mps 746 mmHg 64%
    18:00 +26°C° 0.1 mm 3 mps 746 mmHg 70%
    19:00 +25°C° 0.1 mm 3 mps 746 mmHg 77%
    20:00 +24°C° 0.3 mm 3 mps 746 mmHg 79%
    21:00 +24°C° 0.3 mm 2 mps 746 mmHg 82%
    22:00 +23°C° 0.3 mm 2 mps 746 mmHg 84%
    23:00 +23°C° 0.1 mm 2 mps 746 mmHg 84%

    24 July, Tuesday

    Time Temperature Precipitation Wind Pressure Humidity
    00:00 +21°C° 0.1 mm 2 mps 746 mmHg 83%
    01:00 +21°C° 0.1 mm 2 mps 746 mmHg 83%
    02:00 +21°C° 0 mm 2 mps 746 mmHg 82%
    03:00 +21°C° 0 mm 2 mps 746 mmHg 81%
    04:00 +20°C° 0 mm 2 mps 746 mmHg 81%
    05:00 +23°C° 0 mm 2 mps 746 mmHg 76%
    06:00 +25°C° 0 mm 2 mps 746 mmHg 70%
    07:00 +26°C° 0 mm 2 mps 746 mmHg 65%
    08:00 +28°C° 0 mm 2 mps 746 mmHg 59%
    09:00 +30°C° 0 mm 3 mps 746 mmHg 53%
    10:00 +31°C° 0 mm 3 mps 746 mmHg 47%
    11:00 +33°C° 0.1 mm 4 mps 746 mmHg 46%
    12:00 +33°C° 0.1 mm 4 mps 746 mmHg 45%
    13:00 +34°C° 0.1 mm 5 mps 746 mmHg 43%
    14:00 +34°C° 0.2 mm 6 mps 746 mmHg 46%
    15:00 +33°C° 0.2 mm 6 mps 746 mmHg 48%
    16:00 +33°C° 0.2 mm 6 mps 747 mmHg 50%
    17:00 +30°C° 0.2 mm 6 mps 747 mmHg 56%
    18:00 +29°C° 0.2 mm 5 mps 747 mmHg 62%
    19:00 +27°C° 0.2 mm 5 mps 748 mmHg 68%
    20:00 +26°C° 0.1 mm 5 mps 748 mmHg 70%
    21:00 +25°C° 0.1 mm 4 mps 748 mmHg 73%
    22:00 +23°C° 0.1 mm 4 mps 748 mmHg 76%
    23:00 +24°C° 0.1 mm 3 mps 749 mmHg 76%
    Show more